Location: Auttagershofen
(48.1940°N, 10.0237°E)
Time: 09:30:29
(UTC+00:00)

BREEZE-M DEB (TANK) - Pass Details

Date: 18 January 2026
Orbit: 359 x 16120 km, 49.4° (Epoch: 11 February)

Event Time Altitude Azimuth Distance (km) Brightness Sun altitude
Exits shadow 04:24:24 47° 270° (W) 1,868 4.4 -26.0°
Maximum altitude 04:27:19 85° 355° (N) 1,964 4.9 -25.5°
Drops below altitude 10° 05:01:10 10° 90° (E) 12,231 10.3 -19.9°
Sets 05:22:59 0° 94° (E) 16,758 11.6 -16.3°
